Theta_e
307 307 307 306 306 306 306 307 306 307 306 305 307 306 314 317 319 320 319 314 304 305 304 302 303 304 305 308 309 309 311 311 314 312 314 314 314 314 315 315 315 316 316 316 317 316 316
307 307 306 305 305 305 305 304 305 304 304 306 305 303 311 314 318 319 319 317 308 305 304 303 302 305 310 309 309 310 311 311 313 313 314 315 315 315 316 315 316 316 316 317 316 316 316
307 307 307 307 306 305 304 304 304 303 302 304 304 303 307 312 316 317 317 315 310 305 305 303 303 306 310 309 308 309 311 312 313 312 313 314 314 315 315 314 314 316 317 318 317 315 316
306 307 307 307 308 307 307 306 305 304 303 303 304 303 298 309 314 315 316 315 306 305 305 305 304 309 309 307 308 310 311 312 313 313 313 312 314 315 316 315 315 316 318 321 318 316 316
305 305 306 305 306 306 307 307 306 305 304 303 303 302 297 303 309 313 314 314 309 305 305 305 307 308 308 307 308 311 311 311 312 313 314 312 313 316 315 316 317 316 319 320 318 317 317
306 305 305 304 304 305 305 306 306 307 305 304 304 302 297 299 305 308 312 312 305 304 305 305 308 307 308 308 309 310 311 310 312 313 312 313 313 317 316 318 323 320 318 317 317 318 316
305 304 304 304 303 304 304 305 305 306 306 305 305 304 298 308 310 307 310 305 307 308 306 307 308 308 307 308 309 311 311 312 313 312 315 313 317 320 316 316 318 318 319 318 316 317 317
305 304 304 303 304 304 304 304 304 304 304 305 305 304 299 307 309 309 311 306 307 308 308 307 307 307 307 308 310 311 311 313 313 315 315 315 318 317 315 317 318 319 319 319 319 317 317
304 304 303 303 304 303 303 303 303 303 303 303 304 304 303 301 307 308 309 308 306 306 309 309 307 307 307 308 310 311 312 312 313 314 315 316 317 315 316 316 317 319 320 319 319 319 318
303 303 303 303 303 303 303 303 303 303 303 302 302 304 304 296 305 307 305 305 305 307 313 311 309 309 308 310 310 309 311 313 313 314 314 314 314 314 315 316 316 318 317 318 319 320 321
303 303 303 302 302 303 303 302 302 303 302 302 302 304 304 297 303 307 306 305 306 307 319 310 310 307 309 310 310 311 311 312 313 313 313 315 314 315 314 314 315 317 317 318 318 319 319
303 302 302 302 302 303 302 300 300 302 302 302 303 304 303 300 300 306 307 306 306 312 317 311 310 309 310 310 309 310 310 311 311 311 311 312 311 312 315 314 315 316 317 317 318 318 321
303 301 301 301 302 302 298 298 301 299 302 303 303 303 301 302 304 306 307 306 312 317 307 312 312 310 310 310 310 310 310 311 311 313 313 311 310 310 312 315 314 316 317 320 320 322 319
303 300 300 301 303 301 297 302 303 302 303 303 303 301 300 306 304 306 305 309 315 312 311 309 312 311 311 310 311 311 311 311 310 310 312 311 313 310 310 313 315 315 316 319 321 319 317
303 301 301 301 303 300 299 301 303 303 303 302 299 301 305 304 302 307 306 314 314 312 307 311 311 311 312 311 312 311 310 310 310 310 311 310 310 309 310 312 313 315 317 315 317 315 315
303 300 300 301 302 300 300 299 302 301 299 298 302 302 305 307 306 306 308 312 311 308 309 311 310 311 311 312 311 311 309 310 311 310 310 311 311 310 310 311 312 313 313 317 317 318 315
303 302 299 301 301 300 298 300 301 300 298 300 305 303 304 306 306 306 311 311 310 309 309 311 309 310 309 311 311 310 309 310 309 311 310 310 310 311 309 310 310 311 312 313 313 316 320
303 302 299 301 301 301 299 300 301 299 297 302 305 306 303 304 305 307 310 309 307 310 309 310 309 309 310 310 310 310 310 309 307 310 310 310 310 310 307 308 310 310 310 311 314 317 316
304 302 298 299 300 301 299 299 300 299 297 303 304 303 304 305 310 309 309 309 309 310 310 310 309 309 309 310 309 309 309 305 307 309 309 308 309 309 308 310 309 308 308 309 310 312 317
304 302 298 299 300 301 299 299 300 299 297 302 303 306 305 305 305 309 309 309 310 309 310 309 309 308 308 308 308 308 308 305 304 306 304 306 309 308 307 307 306 306 306 306 308 313 311
305 303 300 299 300 300 300 299 300 299 297 302 303 305 305 308 308 309 309 309 310 309 309 309 309 308 308 308 307 307 306 305 303 302 304 305 306 304 304 304 304 304 305 305 307 308 310
306 303 302 298 300 300 300 300 301 299 298 301 303 302 301 307 307 309 308 309 309 308 308 310 309 309 308 306 304 304 305 304 303 303 304 304 307 303 304 305 305 304 304 304 306 308 308
306 304 302 297 299 300 300 299 301 300 300 301 301 300 302 306 307 308 309 308 307 307 304 303 306 308 307 303 302 302 301 302 302 304 304 303 304 306 307 306 307 310 309 309 310 309 310
306 304 302 295 299 300 300 299 301 302 302 300 302 301 303 308 307 308 308 307 307 304 304 302 302 305 300 300 301 301 302 302 303 302 302 302 303 305 309 307 313 310 309 310 309 309 308
305 305 302 296 299 299 299 299 299 302 302 301 302 302 303 306 305 307 307 306 303 302 302 301 299 299 299 302 304 305 307 305 304 302 302 302 304 307 309 307 307 308 308 309 309 310 307
305 304 301 296 299 299 299 299 300 299 302 302 303 302 303 305 305 302 306 305 306 304 302 299 298 299 300 303 305 307 307 306 307 304 301 302 302 306 307 308 307 310 309 307 308 311 307
306 305 300 296 299 299 299 299 299 300 301 302 302 302 303 302 301 300 304 304 301 302 303 300 299 300 300 304 305 306 306 305 307 306 305 304 304 306 306 307 305 308 306 307 310 311 307
305 304 299 296 298 299 299 298 298 302 306 306 305 304 303 304 301 299 299 300 300 301 303 300 301 301 301 304 306 307 305 306 305 305 304 305 305 306 305 306 307 306 306 309 308 307 307
305 304 297 296 298 299 299 298 298 304 306 307 306 307 304 302 301 299 299 299 298 299 301 300 301 302 303 304 305 306 306 305 305 305 303 305 305 307 306 307 306 306 307 306 305 306 305
Wind_Speed
22 21 22 23 24 26 26 25 24 24 24 23 23 19 16 17 17 18 19 18 15 12 8 9 9 9 9 7 10 5 9 10 7 5 6 5 9 12 12 12 12 16 7 4 4 6 3
23 23 24 25 24 25 28 27 26 24 24 24 23 21 14 17 19 17 18 18 16 11 9 9 9 9 8 9 3 4 8 7 4 5 4 6 6 10 14 9 11 6 7 7 5 7 4
24 26 25 26 26 23 23 26 27 28 29 24 24 23 12 15 14 20 16 17 14 11 9 9 8 9 12 15 4 5 6 7 6 3 6 8 8 5 6 2 6 5 8 8 5 2 5
23 23 24 25 28 27 26 25 21 24 28 27 25 24 19 13 11 18 17 15 13 9 9 8 8 5 10 9 7 6 5 7 5 6 6 7 8 10 8 3 5 8 12 10 12 6 4
24 25 26 27 26 27 28 28 28 25 26 26 26 26 25 17 16 15 18 15 12 10 8 5 7 5 10 6 5 5 4 5 9 6 8 8 7 5 4 4 6 11 8 12 8 9 6
24 27 29 29 27 28 28 29 29 28 25 27 26 26 25 20 18 18 16 12 9 10 10 6 6 5 9 1 4 6 4 7 4 4 6 8 5 5 4 5 3 9 16 12 17 7 3
27 28 30 30 27 27 28 28 29 27 26 25 25 26 21 19 20 20 15 4 2 3 12 10 3 4 4 5 5 3 3 6 7 6 9 7 6 8 4 8 13 11 12 13 2 5 5
30 28 28 30 29 29 29 28 29 28 26 25 22 25 20 17 13 7 12 5 7 3 7 13 12 10 7 4 2 3 3 3 6 9 5 5 9 5 7 12 10 9 9 6 3 1 4
30 29 29 29 29 30 30 30 29 29 26 24 22 23 20 16 16 12 10 8 7 4 4 2 7 6 4 4 2 1 4 3 8 10 10 10 7 7 7 12 9 5 10 3 9 3 8
28 29 30 29 32 34 32 32 30 28 27 23 23 20 19 14 13 9 6 6 6 3 2 5 4 4 3 2 3 2 2 2 3 7 6 9 5 6 9 11 8 14 4 7 5 7 3
29 32 31 33 34 34 36 35 33 30 26 25 23 17 15 11 11 14 4 4 5 2 3 3 4 4 4 3 1 3 1 2 8 7 4 3 7 8 10 8 7 6 9 9 9 9 8
29 33 33 33 33 36 36 36 33 31 27 23 18 14 12 9 14 14 7 8 2 2 3 3 4 5 5 3 2 2 1 2 4 7 7 10 6 5 8 11 9 11 10 7 6 4 4
32 32 33 33 35 35 36 38 36 29 22 19 17 10 13 11 10 10 7 4 3 3 3 4 3 4 4 5 4 2 2 4 4 4 1 5 3 4 5 9 8 9 9 3 3 3 2
33 31 29 32 35 33 35 35 35 18 15 15 8 13 16 17 16 9 11 4 5 3 2 2 3 6 2 6 2 4 3 2 3 6 5 5 0 6 8 6 7 10 9 5 4 2 1
38 34 28 29 32 29 33 33 31 20 18 12 14 11 5 6 7 14 7 4 4 2 2 4 5 3 4 4 1 3 1 3 5 6 6 5 2 3 4 8 6 4 4 8 6 3 3
36 33 27 27 31 27 28 26 22 23 19 15 11 10 6 7 16 15 3 3 2 2 1 1 4 2 2 4 2 1 1 4 3 5 5 5 5 2 5 7 1 4 1 2 1 3 4
32 35 24 27 27 25 25 24 19 17 15 12 6 4 4 9 12 5 1 3 3 3 2 4 4 2 3 2 1 2 4 3 5 5 4 6 2 3 6 6 9 4 3 4 1 4 3
30 33 22 25 24 24 25 22 24 16 13 11 6 2 5 12 3 2 0 3 4 3 1 2 2 4 4 2 2 2 2 5 7 5 6 6 5 5 9 6 5 6 5 4 3 4 2
27 30 23 22 21 23 24 25 23 9 11 9 5 4 4 6 2 2 2 3 3 3 0 2 3 3 2 2 1 2 2 3 7 4 5 7 1 4 4 3 8 4 5 6 1 2 3
25 28 28 19 21 21 22 25 21 4 5 7 5 2 5 0 7 2 1 2 2 2 1 3 3 1 0 1 2 2 3 2 3 3 5 3 1 2 5 6 4 7 8 7 5 2 6
24 27 29 17 18 18 19 21 12 2 4 6 6 4 5 1 2 3 3 3 2 2 2 2 2 2 4 1 0 1 1 3 3 1 1 1 0 3 5 5 5 8 8 8 1 5 2
22 25 28 15 15 16 16 19 9 4 4 5 4 5 9 6 3 3 2 4 4 2 6 4 2 4 2 3 5 4 1 2 3 2 2 3 1 1 1 5 4 1 4 5 6 8 8
19 25 27 15 11 12 12 13 7 2 1 4 3 4 3 5 2 2 3 4 6 3 4 6 4 1 4 5 7 7 7 7 4 2 2 1 2 2 3 4 2 2 2 0 2 2 3
17 24 25 18 9 10 9 9 8 6 9 4 4 2 4 3 1 3 2 4 4 5 2 4 6 3 4 9 8 8 8 8 7 6 4 3 1 1 2 3 1 3 1 1 1 0 4
17 22 23 17 8 8 9 7 6 5 5 5 4 1 0 3 6 2 4 1 2 3 2 4 5 3 10 1 2 2 3 3 3 4 3 2 2 1 3 3 1 4 4 3 3 5 4
17 20 21 17 10 10 10 10 9 11 12 12 10 6 0 6 4 2 2 4 2 1 3 3 6 10 2 2 2 2 2 2 1 1 2 1 1 2 2 2 2 5 5 1 2 7 9
19 19 22 17 12 11 12 12 12 14 14 20 24 20 5 4 2 1 3 1 1 1 2 4 5 3 1 1 2 2 1 1 2 2 3 2 2 4 3 3 3 5 5 5 3 3 8
21 19 21 18 14 12 12 12 12 13 12 22 29 25 19 7 5 5 6 3 3 3 2 6 4 3 3 2 1 1 2 1 2 1 3 4 4 3 2 3 3 11 7 4 4 2 4
23 21 19 18 14 14 13 12 11 7 8 20 26 22 23 4 4 5 7 11 10 6 2 8 2 2 2 3 2 2 3 1 2 2 4 4 3 2 4 1 3 13 2 0 1 3 3
Wind_Direction
342 340 339 343 338 335 334 334 330 333 336 335 331 318 288 297 288 292 297 304 308 290 298 293 292 302 328 275 268 279 334 330 332 301 299 281 272 247 262 235 225 227 203 227 171 124 45
349 344 345 343 339 332 330 337 331 330 333 334 334 331 304 301 276 291 301 306 310 290 289 288 286 297 299 267 225 295 330 328 329 287 300 293 288 279 284 282 228 271 192 190 146 119 128
343 340 337 332 330 333 337 337 344 334 335 328 330 327 299 292 285 269 290 304 298 284 278 278 278 292 271 254 262 292 319 316 298 278 309 322 307 297 306 300 274 243 191 181 189 128 146
337 332 328 326 322 319 318 321 331 344 337 332 326 326 311 289 298 280 280 304 291 275 269 273 279 279 264 261 256 285 290 315 260 274 286 310 282 267 271 236 207 221 240 237 181 190 203
329 328 324 318 318 318 318 311 311 321 324 329 325 325 327 287 275 274 277 296 285 254 240 254 274 232 269 272 254 248 288 303 291 270 259 288 278 272 243 242 221 217 234 228 229 201 186
337 330 328 328 328 326 313 312 310 306 315 318 322 325 328 309 278 277 274 294 284 247 227 246 234 246 253 235 253 255 282 305 297 263 280 238 242 255 224 249 260 296 221 228 220 177 214
331 331 330 329 322 317 315 313 312 311 305 307 312 319 325 321 303 271 264 292 189 212 214 204 217 264 294 291 287 228 282 300 263 251 253 199 249 249 227 279 289 289 273 263 202 135 242
332 334 326 328 329 328 321 314 311 309 308 303 305 311 322 330 332 297 254 211 239 200 268 238 247 250 268 273 290 231 331 277 261 261 203 238 267 273 311 294 289 281 272 257 59 157 255
327 329 329 329 326 321 318 316 311 309 309 305 306 305 319 300 319 301 264 240 239 244 260 191 209 239 244 192 270 236 357 318 282 278 262 272 274 323 292 295 290 282 299 344 317 153 242
329 330 330 329 326 326 323 321 316 312 309 302 298 297 311 301 311 300 262 227 219 150 273 155 177 178 175 188 228 241 14 342 255 297 303 275 333 292 286 286 313 299 12 297 294 268 322
332 333 332 332 330 329 328 325 320 309 302 298 297 291 298 309 267 287 278 207 172 148 225 118 136 153 162 225 88 140 334 270 286 304 274 291 327 326 283 299 327 309 324 296 290 281 314
336 335 335 335 335 335 333 327 320 313 302 296 298 287 294 302 259 258 229 171 189 215 199 140 136 158 159 189 193 117 207 240 296 290 263 286 302 289 318 309 283 300 277 255 271 254 272
336 337 337 337 336 338 337 338 328 313 309 291 287 293 292 271 257 262 218 182 213 258 169 136 142 163 196 157 174 196 195 213 294 281 251 312 320 303 294 294 244 262 278 250 215 231 285
337 338 338 336 339 340 347 346 345 341 321 313 334 319 285 264 231 234 183 229 243 67 105 109 131 141 172 166 141 158 213 232 166 299 311 342 279 2 2 313 312 307 285 272 273 296 144
346 338 339 339 341 343 352 353 5 1 0 12 357 332 102 176 195 173 194 241 37 66 122 145 144 174 149 165 324 194 41 27 18 345 348 340 18 327 330 328 329 347 268 331 305 289 320
343 343 340 340 342 341 348 354 360 3 3 4 11 343 48 132 164 167 242 338 68 33 103 254 52 332 128 131 200 221 38 42 13 3 337 14 302 50 334 309 186 308 73 307 251 260 231
341 343 339 340 339 342 342 353 346 360 355 2 24 13 23 152 155 171 268 31 48 0 317 350 53 62 29 75 350 73 56 77 359 349 328 328 321 358 283 20 347 359 30 10 168 289 317
341 340 334 338 340 337 339 346 347 339 355 5 8 6 43 139 84 268 55 17 6 358 246 43 29 36 13 50 83 80 51 33 352 326 337 22 312 304 354 17 348 47 69 20 354 4 352
337 338 338 335 340 339 341 341 344 321 358 360 18 7 85 36 66 180 44 38 349 327 299 42 60 23 14 41 19 66 86 43 8 8 15 3 67 294 177 143 69 28 37 30 117 277 338
333 335 347 337 340 344 341 344 341 294 354 29 8 25 55 184 359 332 332 41 351 12 355 35 60 348 99 78 17 124 138 69 24 35 1 295 12 304 308 332 332 310 320 331 29 326 333
331 331 343 333 338 344 341 348 2 25 1 55 20 23 359 33 324 291 8 10 286 20 27 11 82 329 354 358 238 73 88 156 96 359 10 18 26 331 309 336 312 269 276 297 228 263 303
321 327 337 327 335 339 340 357 360 305 331 54 37 19 355 321 90 301 68 44 340 19 348 54 0 45 14 22 14 0 352 294 31 97 48 352 107 337 281 348 349 217 258 268 280 278 290
322 323 331 325 324 328 331 350 355 6 38 67 39 31 3 319 96 262 14 2 8 338 60 41 351 64 79 44 67 66 70 72 79 18 45 54 132 283 61 25 347 134 62 111 306 331 316
322 319 325 318 302 313 314 326 334 27 178 139 104 52 34 2 270 238 15 306 342 23 32 39 25 6 126 119 100 90 91 92 85 67 30 138 119 285 337 274 2 103 83 218 274 342 293
316 311 317 309 285 285 285 270 270 213 228 214 226 198 201 307 335 242 239 44 142 63 64 68 24 75 140 248 244 233 169 182 82 46 53 51 309 335 319 313 9 169 193 211 248 230 204
302 304 308 301 286 273 276 255 245 231 237 232 232 220 170 314 64 334 243 226 270 188 138 79 64 144 343 276 262 286 334 51 163 220 14 259 250 303 344 288 275 82 143 142 232 258 176
293 299 299 295 278 267 261 263 256 259 235 238 244 234 212 253 282 235 255 222 178 196 66 135 156 203 271 278 268 284 2 12 280 250 210 167 243 235 233 282 278 147 137 152 243 69 168
283 291 291 285 280 252 255 255 258 268 263 223 233 232 200 209 268 263 241 257 209 204 214 143 156 188 194 241 260 338 284 95 262 196 211 206 187 204 199 241 255 151 133 224 71 150 194
273 282 283 275 271 249 244 243 248 251 202 201 214 210 196 226 242 274 237 236 219 204 141 179 341 161 209 233 211 303 241 223 315 278 208 246 232 322 230 26 91 181 294 260 308 256 204